STARLINK-11514, 62514

Orbit data source: Space-Track

STARLINK-11514, 62514 is a payload satellite owned by SpaceX/Seattle (US) in LEO that was launched on Wed, 08 Jan 2025 UTC via an FALCON 9 launch vehicle from the Air Force Eastern Test Range (AFETR). Payload-class satellites include a variety of spacecraft equipped with specific instruments for various scientific and technological missions. These include communications satellites like Starlink; space stations such as the ISS; scientific satellites like the Hubble; Earth observation satellites from companies like Planet Labs, Umbra, and HawkEye 360; GPS; miniature CubeSats for education and research; and military/defense satellites.

Loading next visibility...
Identifier
62514, 2025-004D
Orbit
LEO
Country
Flag of USUS
Related business
Manufacturer
SpaceX/Seattle
Mission
Operational Commercial Communications
Bus & Motor
STARLINK V2MD, Unknown motor
Mass
960 kg wet, ~910 kg dry
Launch date (UTC)
2025-01-08 (2 years ago)
Launch vehicle
FALCON 9
Launch site
Air Force Eastern Test Range (AFETR)
Object type
Payload
Rocket body
Debris
Shape & HBR
Box + 2 Pan, 18.1 m
Radar Cross Section
36.964 m², Large (>1 m²)

Expand to show TLE details & history
Last TLE update: 3 days ago

TLE from 3 days ago
0 STARLINK-11514
1 62514U 25004D   26252.40766271  .00148083  00000-0  11346-2 0  9990
2 62514  43.0012  43.2438 0002625 245.9042 114.1551 15.70891264 96102
Epoch: 2026-09-09T09:47Z
TLE epoch observation values (Epoch: 2026-09-09T09:47:02.058Z)
Latitude
-0.00002°
Longitude
-91.97496°
Altitude
356.844 km
Speed
7.697 km/s
True Right ascension
02h 52m 58s
True Declination
0° 00' 00"
Sunlit
Object was in full shadow at epoch
Visualization orbit readout
Latitude
Unknown
Longitude
Unknown
Altitude
Unknown
Speed
Unknown
Apparent Right ascension
Unknown
Apparent Declination
Unknown
Sunlit
N/A
Visualization observer readout
Local Sidereal Time
20:05:01
Azimuth
Unknown
Elevation
Unknown
Doppler factor
Unknown
Orbital elements
Apogee altitude
360.098 km
Perigee altitude
356.562 km
Semi-major axis
6,736.467 km
Eccentricity
0.00026
Inclination
43.0012°
RAAN
43.2438°
Arg. of periapsis
245.9042°
True anomaly
114.18254°
Mean anomaly
114.1551°
Eccentric anomaly
114.16882°
Mean motion
3.9255 °/min
Orbital period
91.71 mins
BSTAR
0.0011346
Loading maneuver chart data...
Computing Atmospheric mass density...
Loading historical data...
Loading historical data...
Loading historical data...
Loading historical data...
Loading historical data...
Loading historical data...
Loading historical data...

Documentation

Showing up to 5 results
|